Vorticity
7 9 4 15 13 10 7 8 9 7 5 8 8 5 6 7 6 6 4 8 4 6 5 7 4 6 7 4 5 6 5 4 8 8 5 6 15 10 9 8 17 20 44 1
6 2 10 9 10 11 9 6 5 7 7 13 8 11 9 8 6 8 10 7 4 4 5 8 2 11 8 8 -1 12 4 6 9 8 4 6 16 13 10 10 10 8 -16 31
10 13 7 7 7 9 12 13 7 7 5 11 11 12 8 8 10 8 8 10 12 5 5 11 9 6 12 14 4 10 7 7 8 9 4 5 13 17 9 10 -2 19 11 24
7 14 8 8 9 6 7 8 11 11 11 12 11 14 7 8 8 2 8 8 10 7 7 11 9 11 11 7 9 5 10 5 7 8 5 5 10 20 9 12 5 10 10 31
7 11 15 6 10 11 18 10 11 9 7 16 7 12 7 1 1 16 14 7 9 6 9 12 -0 6 6 -0 7 5 9 6 8 7 4 4 9 20 12 11 3 16 32 10
10 10 4 8 3 7 8 7 10 8 11 15 4 15 12 9 8 12 9 10 7 7 7 15 8 -1 6 4 -0 6 10 7 10 7 4 3 7 15 16 13 -0 13 34 22
29 21 14 10 5 5 3 -0 9 10 5 7 6 7 0 10 5 9 11 12 9 7 9 21 4 11 14 15 -2 5 14 6 10 8 6 6 2 8 22 17 2 10 29 -11
6 12 15 14 8 2 2 2 5 13 12 9 7 14 8 6 4 13 7 10 15 8 12 17 6 9 13 20 4 4 12 6 8 10 8 10 10 6 15 16 4 12 31 1
19 12 18 11 6 6 13 11 -5 7 11 11 8 8 6 8 5 16 12 11 20 12 15 18 14 12 10 16 5 14 6 5 6 7 5 6 14 9 5 15 17 2 4 36
26 24 25 29 10 7 9 -2 6 8 6 9 8 5 6 5 11 12 9 9 13 17 13 13 7 21 14 10 4 12 6 5 5 6 4 7 5 16 5 6 8 17 12 5
3 20 -1 24 34 12 11 5 4 5 7 10 10 11 6 8 14 13 11 8 11 5 12 14 17 18 12 8 1 16 6 4 5 4 4 5 3 6 17 4 7 10 11 13
19 2 11 10 11 19 15 16 4 20 13 10 7 6 5 3 7 15 8 8 14 13 2 13 12 34 11 3 1 12 6 3 7 4 5 5 4 3 8 18 5 9 10 9
16 22 14 5 19 12 12 18 16 21 10 10 11 9 5 5 9 6 15 9 11 12 11 3 3 28 -2 7 9 3 5 3 4 5 4 5 3 4 5 13 10 5 6 7
33 54 26 12 6 15 11 14 12 13 19 14 7 8 4 9 16 12 18 12 18 9 28 6 28 5 -0 1 9 2 6 3 2 5 6 5 0 5 4 10 13 3 3 5
-6 10 34 45 11 9 7 15 11 12 12 11 10 6 5 10 1 8 12 -0 24 15 -17 52 25 11 -2 6 5 11 6 3 4 2 4 5 2 5 6 10 11 4 2 2
-2 11 -4 32 17 12 12 10 18 19 16 10 10 9 10 15 -3 6 13 10 14 -21 40 24 35 3 3 7 1 -4 7 5 5 3 3 4 6 8 8 7 8 11 4 3
17 1 7 20 41 16 5 9 -3 -15 4 15 16 10 12 19 19 13 17 -15 4 12 10 28 24 56 8 6 5 7 -2 19 7 4 3 5 3 5 8 3 6 5 9 12
9 -1 -6 16 3 65 18 11 -1 -21 32 -9 19 22 22 -9 30 16 10 1 9 22 -4 -20 7 21 20 -8 13 3 -1 2 14 10 8 -1 8 10 11 8 2 4 9 5
16 8 4 21 9 2 17 17 29 34 5 42 29 22 24 26 32 20 14 2 16 12 8 10 18 -20 54 45 13 18 -4 43 6 23 30 10 14 14 8 19 15 16 7 7
8 10 0 13 15 -4 12 -4 2 23 12 19 21 18 15 2 23 0 25 17 12 16 29 15 12 12 -4 26 46 4 5 12 9 20 34 -18 3 -6 17 8 11 10 9 15
4 14 13 14 30 -12 1 3 1 1 2 12 7 -1 -12 2 6 3 4 4 6 10 5 11 16 14 10 8 28 22 11 16 13 1 -5 -10 -8 0 2 3 15 -7 17 8
17 7 16 15 19 3 2 10 1 -1 9 3 7 8 8 18 10 7 10 12 15 8 13 18 8 16 12 17 1 14 8 17 -5 -7 7 9 9 7 5 4 10 9 6 -13
1 40 18 22 30 -4 12 6 9 16 10 11 16 8 5 5 1 5 8 10 9 8 6 15 8 12 15 13 13 11 9 16 18 8 3 12 15 8 14 15 6 14 7 8
-2 27 31 25 19 13 15 19 17 6 16 18 9 13 17 15 8 10 9 10 2 10 10 8 6 5 4 14 10 7 12 17 16 13 14 16 17 11 11 16 8 7 6 4
26 37 1 27 22 16 9 10 9 7 9 16 4 7 6 4 7 5 5 6 9 6 7 6 8 11 10 7 7 4 3 0 2 2 3 3 3 9 9 6 5 5 9 4
31 24 5 4 12 21 8 7 13 9 7 25 23 8 6 9 11 7 7 10 15 17 16 15 14 13 14 14 14 15 15 14 14 13 11 10 8 7 6 5 4 3 4 4
Height
5649 5652 5660 5665 5667 5671 5670 5673 5678 5682 5682 5684 5688 5694 5696 5700 5704 5705 5707 5710 5711 5712 5714 5719 5720 5720 5722 5720 5722 5722 5720 5718 5716 5713 5710 5708 5706 5704 5703 5702 5699 5696 5694 5696
5635 5642 5649 5650 5653 5657 5659 5661 5668 5669 5671 5673 5678 5685 5685 5687 5694 5697 5699 5702 5703 5703 5707 5710 5713 5713 5716 5714 5715 5716 5714 5713 5710 5707 5704 5703 5701 5698 5698 5697 5696 5694 5693 5693
5620 5637 5635 5636 5640 5645 5650 5653 5656 5659 5660 5664 5664 5675 5676 5679 5683 5687 5690 5692 5695 5695 5696 5701 5705 5705 5708 5711 5711 5708 5708 5707 5705 5703 5700 5698 5697 5694 5693 5693 5692 5690 5689 5691
5607 5622 5621 5624 5631 5633 5639 5644 5645 5648 5648 5654 5657 5660 5666 5671 5676 5677 5681 5685 5684 5684 5686 5691 5696 5697 5701 5702 5705 5702 5702 5701 5700 5698 5696 5694 5693 5690 5689 5689 5689 5687 5687 5688
5602 5604 5608 5612 5625 5623 5633 5632 5635 5636 5638 5640 5647 5651 5657 5664 5669 5668 5669 5673 5674 5676 5678 5682 5687 5688 5693 5696 5698 5697 5697 5696 5695 5692 5691 5691 5689 5686 5685 5686 5686 5683 5684 5687
5582 5583 5587 5602 5606 5612 5617 5618 5621 5623 5626 5630 5638 5644 5651 5654 5656 5659 5661 5663 5665 5667 5670 5674 5677 5681 5686 5689 5690 5692 5692 5691 5690 5687 5687 5687 5685 5683 5682 5682 5682 5680 5680 5684
5565 5570 5575 5584 5591 5598 5602 5606 5610 5614 5617 5625 5627 5633 5642 5644 5645 5647 5652 5654 5655 5657 5659 5663 5668 5674 5677 5680 5683 5685 5686 5686 5685 5683 5683 5682 5681 5679 5678 5678 5679 5678 5677 5680
5544 5552 5561 5571 5580 5587 5593 5597 5603 5606 5610 5617 5619 5625 5633 5634 5636 5639 5641 5645 5647 5648 5650 5655 5659 5663 5666 5672 5675 5677 5679 5680 5680 5678 5679 5678 5678 5676 5676 5676 5677 5676 5676 5678
5533 5540 5549 5558 5569 5574 5583 5585 5600 5597 5602 5606 5612 5617 5622 5625 5628 5632 5633 5634 5639 5640 5642 5647 5651 5655 5659 5664 5667 5668 5670 5673 5674 5674 5675 5674 5674 5674 5673 5674 5674 5676 5676 5676
5528 5535 5541 5548 5554 5561 5568 5581 5583 5586 5592 5595 5602 5608 5612 5616 5622 5624 5624 5624 5628 5632 5635 5640 5642 5647 5651 5656 5659 5663 5665 5666 5666 5667 5669 5669 5671 5671 5671 5672 5673 5674 5676 5677
5523 5529 5538 5541 5547 5553 5561 5565 5569 5577 5583 5589 5596 5601 5606 5609 5614 5616 5617 5617 5622 5624 5626 5630 5634 5638 5644 5650 5653 5658 5660 5660 5661 5662 5664 5663 5664 5666 5668 5669 5671 5672 5673 5675
5517 5522 5529 5538 5543 5548 5552 5559 5563 5569 5581 5583 5588 5595 5597 5601 5608 5611 5611 5611 5614 5616 5619 5623 5627 5630 5637 5642 5646 5650 5653 5655 5657 5659 5661 5661 5662 5662 5662 5665 5668 5671 5672 5673
5511 5516 5524 5534 5538 5541 5545 5551 5558 5564 5570 5574 5580 5588 5590 5593 5599 5602 5604 5606 5606 5608 5612 5616 5619 5623 5629 5635 5641 5644 5646 5649 5651 5655 5656 5658 5659 5660 5661 5662 5663 5665 5669 5671
5507 5512 5518 5526 5530 5534 5539 5545 5552 5557 5561 5571 5573 5577 5579 5585 5589 5592 5596 5599 5599 5602 5604 5608 5613 5618 5622 5629 5634 5636 5640 5643 5646 5649 5652 5655 5657 5658 5659 5661 5662 5663 5664 5667
5506 5510 5515 5518 5524 5530 5535 5540 5545 5550 5557 5561 5567 5570 5574 5579 5583 5585 5590 5592 5593 5596 5599 5601 5607 5610 5614 5622 5625 5628 5631 5638 5642 5645 5648 5650 5652 5655 5656 5658 5659 5660 5662 5664
5506 5510 5512 5516 5520 5525 5531 5537 5540 5544 5551 5556 5559 5564 5568 5575 5576 5580 5583 5585 5589 5592 5595 5594 5600 5603 5608 5613 5617 5623 5627 5630 5634 5638 5641 5644 5648 5651 5652 5654 5656 5657 5658 5659
5506 5510 5513 5514 5516 5521 5530 5532 5535 5540 5545 5550 5555 5558 5562 5567 5570 5573 5576 5579 5580 5584 5585 5588 5588 5594 5601 5607 5612 5616 5620 5624 5625 5629 5632 5635 5639 5643 5646 5648 5650 5653 5654 5655
5505 5506 5511 5514 5516 5517 5523 5527 5532 5536 5539 5546 5549 5552 5557 5559 5563 5567 5571 5574 5576 5579 5578 5581 5582 5585 5588 5597 5604 5608 5612 5615 5618 5621 5625 5627 5632 5636 5639 5642 5643 5645 5647 5649
5503 5505 5509 5513 5516 5519 5520 5524 5529 5532 5538 5541 5546 5549 5551 5556 5558 5561 5563 5567 5570 5572 5572 5576 5577 5580 5582 5587 5594 5597 5603 5604 5610 5615 5618 5621 5625 5630 5634 5635 5637 5638 5640 5641
5500 5504 5507 5510 5515 5518 5518 5522 5525 5530 5536 5538 5541 5546 5550 5553 5555 5556 5556 5560 5564 5567 5567 5570 5571 5574 5577 5579 5582 5588 5596 5599 5604 5608 5610 5610 5614 5620 5624 5627 5629 5631 5633 5633
5496 5499 5503 5506 5509 5516 5518 5522 5525 5531 5536 5535 5539 5543 5542 5546 5548 5551 5552 5555 5558 5562 5565 5566 5567 5569 5570 5574 5579 5583 5590 5595 5598 5601 5603 5606 5609 5614 5615 5617 5620 5622 5624 5625
5494 5497 5499 5502 5506 5514 5515 5520 5524 5530 5531 5532 5536 5537 5540 5542 5544 5547 5549 5551 5553 5556 5557 5560 5563 5565 5566 5570 5575 5578 5582 5586 5591 5595 5598 5600 5603 5605 5606 5607 5610 5612 5613 5615
5495 5492 5492 5497 5502 5506 5512 5517 5521 5525 5528 5530 5532 5533 5536 5540 5542 5544 5546 5547 5548 5549 5552 5555 5558 5560 5562 5564 5567 5570 5574 5577 5580 5583 5586 5588 5590 5591 5594 5597 5599 5601 5602 5603
5488 5485 5487 5491 5496 5502 5507 5512 5516 5520 5523 5526 5528 5530 5533 5536 5538 5539 5541 5543 5544 5546 5547 5549 5552 5556 5559 5561 5563 5565 5567 5569 5571 5574 5577 5580 5582 5583 5584 5585 5587 5588 5590 5592
5486 5485 5487 5491 5493 5497 5502 5507 5513 5517 5520 5523 5524 5526 5528 5531 5533 5534 5536 5538 5539 5540 5541 5543 5545 5548 5549 5551 5554 5556 5558 5561 5562 5564 5566 5568 5569 5571 5573 5574 5575 5576 5576 5577
5485 5486 5488 5491 5493 5496 5500 5504 5509 5513 5518 5522 5522 5523 5526 5528 5528 5530 5531 5533 5535 5535 5536 5537 5538 5539 5540 5542 5545 5547 5549 5551 5553 5554 5554 5555 5557 5559 5560 5561 5561 5562 5562 5563